Location: Novokuznetsk
(53.7500°N, 87.1000°E)
Time: 00:34:30
(UTC+06:00)

ISS - Visible Passes

Search period start: 22 February 2019 00:00
Search period end: 04 March 2019 00:00
Orbit: 403 x 411 km, 51.6° (Epoch: 22 February)

Date Brightness Start Highest point End Pass type
(mag) Time Alt. Az. Time Alt. Az. Time Alt. Az.
24 Feb -0.6 06:08:13 10° SSE 06:08:56 11° SE 06:09:38 10° SE visible
26 Feb -1.3 05:59:46 10° SSW 06:02:07 18° SSE 06:04:29 10° ESE visible
27 Feb -1.0 05:09:20 10° S 05:10:52 13° SE 05:12:24 10° ESE visible
28 Feb -2.2 05:52:29 10° SW 05:55:22 29° SSE 05:58:17 10° E visible
01 Mar -1.8 05:02:54 18° S 05:04:02 21° SSE 05:06:37 10° E visible
02 Mar -1.1 04:13:28 14° SE 04:13:28 14° SE 04:14:42 10° ESE visible
02 Mar -2.9 05:46:11 14° SW 05:48:41 43° SSE 05:51:49 10° E visible
03 Mar -2.7 04:56:41 31° S 04:57:14 33° SSE 05:00:14 10° E visible
